Regional Weather Roundup
Issued by NWS

Home | Current Version | Previous Version | Graphics & Text | Print | Product List | Glossary On
Versions: 1 2 3 4 5 6 7 8 9 10 11 12 13 14 15 16 17 18 19 20 21 22 23 24 25 26 27 28 29 30 31 32 33 34 35 36 37 38 39 40 41 42 43 44 45 46 47 48 49 50
000
ASUS43 KLSX 261410
RWRMO

WEATHER SUMMARY FOR MISSOURI
NATIONAL WEATHER SERVICE SPRINGFIELD MO
900 AM CDT TUE JUL 26 2016

NOTE: "FAIR" INDICATES FEW OR NO CLOUDS BELOW 12,000 FEET WITH NO
       SIGNIFICANT WEATHER AND/OR OBSTRUCTIONS TO VISIBILITY.
       CURRENT SKY AND/OR WEATHER CONDITIONS ARE NOT AVAILABLE FOR
       CHILLICOTHE AND FARMINGTON.

MOZ001>031-035>038-043-044-053-054-261500-
...NORTHERN AND WESTERN MISSOURI...

CITY           SKY/WX    TMP DP  RH WIND       PRES   REMARKS
KANSAS CTY INT MOSUNNY   77  69  76 NE7       30.08S
KANSAS C DTWN  SUNNY     78  68  71 VRB6      30.06F
LEE`S SUMMIT   SUNNY     77  71  82 E5        30.08S
ST JOSEPH      SUNNY     76  67  73 CALM      30.08S
CHILLICOTHE      N/A     79  68  69 NE3       30.09S
KIRKSVILLE     SUNNY     78  67  68 NE5       30.10R

$$
MOZ066>068-077>081-088>096-101>105-261500-
...SOUTHWEST MISSOURI...

CITY           SKY/WX    TMP DP  RH WIND       PRES   REMARKS
SPRINGFIELD    MOSUNNY   79  73  82 N7        30.05S
JOPLIN         CLOUDY    77  73  87 NE7       30.03S
BRANSON        PTSUNNY   79  72  78 E6        30.06S

$$
MOZ032>034-039>042-045>050-055>058-069>072-261500-
...CENTRAL MISSOURI...

CITY           SKY/WX    TMP DP  RH WIND       PRES   REMARKS
COLUMBIA       CLOUDY    77  71  82 NE10      30.07S
JEFFERSON CITY CLOUDY    76  70  82 CALM      30.06S
ROLLA          PTSUNNY   77  72  84 NE6       30.05S
SEDALIA        SUNNY     78  70  76 E7        30.09R
OSAGE BEACH    CLOUDY    75  72  90 NE7       30.07R

$$
MOZ051-052-059>065-261500-
...EAST CENTRAL MISSOURI...

CITY           SKY/WX    TMP DP  RH WIND       PRES   REMARKS
ST LOUIS INTL  CLOUDY    80  72  76 NE5       30.05R
SPIRIT OF STL  PTSUNNY   80  74  81 E3        30.03S
ST CHARLES     PTSUNNY   80  74  81 E6        30.04R

$$
MOZ072>076-082>087-097>100-106>115-261500-
...SOUTH CENTRAL AND SOUTHEAST MISSOURI...

CITY           SKY/WX    TMP DP  RH WIND       PRES   REMARKS
CAPE GIRARDEAU CLOUDY    77  76  96 CALM      30.02F FOG
FARMINGTON     PTSUNNY   78  74  87 CALM      30.06S
POPLAR BLUFF   MOSUNNY   81  75  82 E3        30.02S
WEST PLAINS    CLOUDY    80  73  79 VRB6      30.07S

$$



USA.gov is the U.S. government's official web portal to all federal, state and local government web resources and services.